Date String (YYYY-MM-DD hh:mm:ss) UTC,Instrument flags,absolute air pressure of the measurement (hPa),sample flow rate (lpm),inlet stack bypass flow (lpm),air temperature of the measurement (°C),ambient temperature measured by the external sensor (°C),aerosol sample conditioner tube jacket temperature (°C),OPC LED temperature (°C),internal box temperature (°C),relative humidity of the measurement (%),span deviation,mass concentration of particles derived from Lorenz-Mie calculation of OPC scattering (μg/m³),mass concentration of particles derived from Lorenz-Mie calculation of OPC scattering (μg/m³),mass concentration of particles derived from Lorenz-Mie calculation of OPC scattering (μg/m³)
DateTimeUTC,F1_M11,P_M11,Q1_M11,Q2_M11,T1_M11,T2_M11,T3_M11,T4_M11,T5_M11,U1_M11,ZSPAN_M11,X2_M11,X0_M11,X1_M11
2024-03-08 22:00:00,SystemResetWarning,0832.5,4.99,000.00,018.3,017.6,000.0,027.0,020.1,19.5,0000.0,0006.27,0007.94,0006.15
2024-03-08 22:01:00,SystemResetWarning,0832.5,5.01,000.00,018.3,017.6,000.0,027.0,020.1,19.6,0000.0,0006.28,0007.93,0006.17
2024-03-08 22:02:00,SystemResetWarning,0832.5,5.00,000.00,018.3,017.6,000.0,027.0,020.1,19.9,0000.0,0006.32,0007.99,0006.19
2024-03-08 22:03:00,SystemResetWarning,0832.5,5.00,000.00,018.3,017.6,000.0,027.0,020.1,20.1,0000.0,0006.34,0007.98,0006.20
2024-03-08 22:04:00,SystemResetWarning,0832.5,5.00,000.00,018.3,017.6,000.0,027.0,020.1,19.9,0000.0,0006.33,0007.96,0006.20
2024-03-08 22:05:00,SystemResetWarning,0832.5,5.00,000.00,018.3,017.6,000.0,027.0,020.1,19.7,0000.0,0006.34,0008.19,0006.21
2024-03-08 22:06:00,SystemResetWarning,0832.6,5.00,000.00,018.3,017.6,000.0,027.0,020.1,19.9,0000.0,0006.31,0008.42,0006.19
2024-03-08 22:07:00,SystemResetWarning,0832.6,5.00,000.00,018.3,017.6,000.0,027.0,020.1,20.0,0000.0,0006.26,0008.38,0006.14
2024-03-08 22:08:00,SystemResetWarning,0832.6,5.00,000.00,018.3,017.6,000.0,027.0,020.1,20.0,0000.0,0006.25,0008.39,0006.12
2024-03-08 22:09:00,SystemResetWarning,0832.6,4.99,000.00,018.3,017.6,000.0,027.0,020.1,20.0,0000.0,0006.21,0008.33,0006.08
2024-03-08 22:10:00,SystemResetWarning,0832.6,5.00,000.00,018.3,017.6,000.0,026.9,020.1,20.0,0000.0,0006.17,0008.29,0006.06
2024-03-08 22:11:00,SystemResetWarning,0832.6,5.00,000.00,018.3,017.6,000.0,026.9,020.1,20.2,0000.0,0006.15,0008.28,0006.04
2024-03-08 22:12:00,SystemResetWarning,0832.6,5.00,000.00,018.3,017.6,000.0,026.9,020.1,20.1,0000.0,0006.12,0008.29,0006.01
2024-03-08 22:13:00,SystemResetWarning,0832.5,4.99,000.00,018.3,017.6,000.0,026.9,020.1,19.9,0000.0,0006.12,0008.31,0006.01
2024-03-08 22:14:00,SystemResetWarning,0832.6,4.99,000.00,018.3,017.6,000.0,026.9,020.1,19.8,0000.0,0006.07,0008.26,0005.99
2024-03-08 22:15:00,SystemResetWarning,0832.6,5.01,000.00,018.3,017.6,000.0,026.9,020.1,19.9,0000.0,0006.05,0008.27,0005.97
2024-03-08 22:16:00,SystemResetWarning,0832.6,5.01,000.00,018.3,017.6,000.0,026.9,020.0,19.7,0000.0,0006.03,0008.10,0005.95
2024-03-08 22:17:00,SystemResetWarning,0832.7,5.00,000.00,018.3,017.6,000.0,026.9,020.0,19.7,0000.0,0006.03,0007.71,0005.95
2024-03-08 22:18:00,SystemResetWarning,0832.7,5.00,000.00,018.2,017.6,000.0,026.9,020.0,19.7,0000.0,0006.06,0007.77,0005.95
2024-03-08 22:19:00,SystemResetWarning,0832.7,4.99,000.00,018.2,017.6,000.0,026.9,020.0,19.8,0000.0,0006.04,0007.73,0005.94
2024-03-08 22:20:00,SystemResetWarning,0832.7,5.00,000.00,018.2,017.6,000.0,026.9,020.0,20.0,0000.0,0006.02,0007.69,0005.93
2024-03-08 22:21:00,SystemResetWarning,0832.6,5.00,000.00,018.2,017.6,000.0,026.9,020.0,20.3,0000.0,0006.00,0007.82,0005.91
2024-03-08 22:22:00,SystemResetWarning,0832.7,4.99,000.00,018.2,017.6,000.0,026.9,020.0,20.8,0000.0,0005.97,0007.97,0005.88
2024-03-08 22:23:00,SystemResetWarning,0832.7,5.01,000.00,018.2,017.6,000.0,026.9,020.0,20.9,0000.0,0005.96,0007.94,0005.87
2024-03-08 22:24:00,SystemResetWarning,0832.7,5.00,000.00,018.2,017.6,000.0,026.9,020.0,21.0,0000.0,0005.94,0007.90,0005.84
2024-03-08 22:25:00,SystemResetWarning,0832.7,5.00,000.00,018.2,017.6,000.0,026.9,020.0,20.8,0000.0,0005.93,0008.05,0005.83
2024-03-08 22:26:00,SystemResetWarning,0832.7,5.00,000.00,018.2,017.6,000.0,026.9,020.0,20.6,0000.0,0005.91,0008.36,0005.82
2024-03-08 22:27:00,SystemResetWarning,0832.6,5.00,000.00,018.2,017.6,000.0,026.9,020.0,20.7,0000.0,0005.88,0008.31,0005.79
2024-03-08 22:28:00,SystemResetWarning,0832.7,4.99,000.00,018.2,017.6,000.0,026.9,020.0,20.8,0000.0,0005.83,0008.26,0005.75
2024-03-08 22:29:00,SystemResetWarning,0832.7,4.99,000.00,018.2,017.6,000.0,026.9,020.0,20.7,0000.0,0005.78,0008.19,0005.72
2024-03-08 22:30:00,SystemResetWarning,0832.7,5.02,000.00,018.2,017.5,000.0,026.9,020.0,20.4,0000.0,0005.76,0008.21,0005.70
2024-03-08 22:31:00,SystemResetWarning,0832.7,5.00,000.00,018.2,017.5,000.0,026.9,020.0,20.2,0000.0,0005.75,0008.24,0005.68
2024-03-08 22:32:00,SystemResetWarning,0832.7,4.99,000.00,018.2,017.5,000.0,026.9,020.0,20.1,0000.0,0005.75,0008.70,0005.66
2024-03-08 22:33:00,SystemResetWarning,0832.6,4.99,000.00,018.2,017.5,000.0,026.9,020.0,20.3,0000.0,0005.74,0008.45,0005.65
2024-03-08 22:34:00,SystemResetWarning,0832.7,5.00,000.00,018.3,017.9,000.0,027.0,020.3,19.7,0000.0,0005.72,0008.45,0005.63
2024-03-08 22:35:00,SystemResetWarning,0832.7,5.01,000.00,018.5,018.8,000.0,027.1,020.8,19.0,0000.0,0005.69,0008.40,0005.61
2024-03-08 22:36:00,SystemResetWarning,0832.7,5.00,000.00,018.7,018.9,000.0,027.0,020.9,18.7,0000.0,0005.65,0008.28,0005.58
2024-03-08 22:37:00,SystemResetWarning,0832.7,5.00,000.00,018.7,018.8,000.0,027.0,020.8,18.8,0000.0,0005.65,0007.80,0005.57
2024-03-08 22:38:00,SystemResetWarning,0832.8,4.99,000.00,018.7,018.6,000.0,027.0,020.7,18.5,0000.0,0005.65,0007.81,0005.57
2024-03-08 22:39:00,SystemResetWarning,0832.8,5.00,000.00,018.7,018.5,000.0,027.0,020.6,18.4,0000.0,0005.65,0007.82,0005.57
2024-03-08 22:40:00,SystemResetWarning,0832.7,5.01,000.00,018.7,018.4,000.0,027.0,020.5,18.3,0000.0,0005.69,0007.89,0005.59
2024-03-08 22:41:00,SystemResetWarning,0832.7,5.01,000.00,018.7,018.3,000.0,027.0,020.5,18.0,0000.0,0005.72,0007.88,0005.60
2024-03-08 22:42:00,SystemResetWarning,0832.7,5.00,000.00,018.6,018.2,000.0,027.0,020.5,18.0,0000.0,0005.72,0007.89,0005.61
2024-03-08 22:43:00,SystemResetWarning,0832.7,5.00,000.00,018.6,018.2,000.0,027.1,020.4,18.1,0000.0,0005.73,0007.48,0005.62
2024-03-08 22:44:00,SystemResetWarning,0832.7,5.00,000.00,018.6,018.1,000.0,027.1,020.4,18.2,0000.0,0005.76,0007.46,0005.63
2024-03-08 22:45:00,SystemResetWarning,0832.7,4.99,000.00,018.6,018.1,000.0,027.1,020.4,18.6,0000.0,0005.77,0007.49,0005.62
2024-03-08 22:46:00,SystemResetWarning,0832.7,5.00,000.00,018.6,018.0,000.0,027.1,020.4,19.0,0000.0,0005.77,0007.48,0005.62
2024-03-08 22:47:00,SystemResetWarning,0832.7,5.00,000.00,018.6,017.9,000.0,027.1,020.3,19.1,0000.0,0005.79,0007.58,0005.62
2024-03-08 22:48:00,SystemResetWarning,0832.7,5.00,000.00,018.6,017.9,000.0,027.1,020.3,19.2,0000.0,0005.80,0008.06,0005.62
2024-03-08 22:49:00,SystemResetWarning,0832.7,5.00,000.00,018.5,017.8,000.0,027.1,020.3,18.7,0000.0,0005.80,0008.07,0005.61
2024-03-08 22:50:00,SystemResetWarning,0832.7,5.00,000.00,018.5,017.8,000.0,027.1,020.2,18.5,0000.0,0005.81,0008.17,0005.60
2024-03-08 22:51:00,SystemResetWarning,0832.7,5.00,000.00,018.5,017.8,000.0,027.1,020.2,18.7,0000.0,0005.77,0008.28,0005.57
2024-03-08 22:52:00,SystemResetWarning,0832.7,5.00,000.00,018.5,017.8,000.0,027.1,020.2,19.0,0000.0,0005.73,0008.90,0005.52
2024-03-08 22:53:00,SystemResetWarning,0832.7,5.01,000.00,018.5,017.7,000.0,027.1,020.2,19.2,0000.0,0005.69,0008.99,0005.47
2024-03-08 22:54:00,SystemResetWarning,0832.7,5.00,000.00,018.4,017.7,000.0,027.1,020.2,19.2,0000.0,0005.67,0009.54,0005.43
2024-03-08 22:55:00,SystemResetWarning,0832.8,4.99,000.00,018.4,017.6,000.0,027.0,020.1,19.0,0000.0,0005.65,0009.64,0005.39
2024-03-08 22:56:00,SystemResetWarning,0832.8,4.99,000.00,018.4,017.6,000.0,027.0,020.1,18.9,0000.0,0005.59,0009.58,0005.35
2024-03-08 22:57:00,SystemResetWarning,0832.7,5.00,000.00,018.3,017.5,000.0,027.0,020.0,18.8,0000.0,0005.56,0009.56,0005.32
2024-03-08 22:58:00,SystemResetWarning,0832.8,5.01,000.00,018.3,017.4,000.0,027.0,020.0,18.9,0000.0,0005.49,0009.48,0005.26
2024-03-08 22:59:00,SystemResetWarning,0832.7,4.99,000.00,018.3,017.3,000.0,027.0,020.0,19.1,0000.0,0005.40,0008.94,0005.19
